Weather in Bhilai

India     21°13′12″N   81°22′48″E
temp.,
°C
wind,
m/s
gust,
m/s
humid.,
%
clouds,
%
prec.,
mm/h
press.,
hPa
HPBL,
m
16 june, wed
wed1623:30+27wsw71172100 0.1 1000797
02:30+26sw697678 0.0 998522
05:30+26wsw5117796 0.0 999577
08:30+27wsw597391 0.0 1001635
11:30+32wsw8954100 0.0 10011248
14:30+32w5752100 0.0 9991464
17:30+33w4549100 0.0 9971044
20:30+30wsw61062100 0.0 1001620
17 june, thu
thu1723:30+28sw6127397 0.0 1001579
02:30+27w5107051 0.1 1001650
05:30+27wsw41076100 4.9 1001623
08:30+27wsw577598 0.0 1002610
11:30+28wsw576957 0.0 1002702
14:30+34w684569 0.0 9992031
17:30+32w695116 0.0 999977
20:30+31wsw595920 0.0 1001789
18 june, fri
fri1823:30+28wsw51268100 1.1 1002565
02:30+26nw5880100 1.8 1001574
05:30+26sw5978100 7.0 1001559
08:30+27wsw6107397 0.1 1002660
11:30+32wnw6852100 0.1 10011523
14:30+33wnw5850100 0.4 9991203
17:30+29wsw91368100 0.6 999817
20:30+28wsw61372100 0.3 1001693
19 june, sat
sat1923:30+27wsw41071100 1.9 1001365
02:30+25wsw61285100 3.0 1000566
05:30+25wsw7148585 4.7 1000646
08:30+26wsw61479100 0.0 1002810
11:30+26wsw61377100 0.7 1002917
14:30+25wsw51286100 2.3 1000739
17:30+25wsw598499 5.1 1000711
20:30+25wsw81486100 0.8 1002699
20 june, sun
sun2023:30+24wsw81589100 2.4 1002706
02:30+24w81586100 1.7 1001851
05:30+24wsw61292100 3.2 1001801
08:30+24wsw81588100 5.6 1002848
11:30+25w81581100 6.5 1003954
14:30+25w81480100 0.1 1002919
17:30+25wsw71480100 0.4 1001849
20:30+25wsw6147796 0.0 1003667